{"data":{"norad_id":37210,"intl_designator":"2010-057A","name":"BEIDOU-2 G4 (C04)","alt_names":[],"object_type":"PAYLOAD","status":"ACTIVE","operator":null,"country":"PRC","launch_date":"2010-10-31","launch_site_code":"XICLF","launch_vehicle":null,"mission":null,"orbit_class":"UNKNOWN","rcs_meters":19.9526,"size_class":null,"mass_kg":null,"dimensions":null,"purposes":["comms","nav"],"wikipedia_slug":null,"has_3d_model":false,"image_url":null,"decayed_at":null,"tle_current":{"epoch":"2026-05-25T02:47:35.782368Z","epoch_age_seconds":60933,"freshness":"FRESH","line1":"1 37210U 10057A   26145.11638637 -.00000114  00000+0  00000+0 0  9994","line2":"2 37210   3.5923  69.0845 0005496 208.1233 167.3853  1.00271823 57067","mean_motion":1.00271823,"eccentricity":0.0005496,"inclination_deg":3.5923,"raan_deg":69.0845,"arg_perigee_deg":208.1233,"mean_anomaly_deg":167.3853,"bstar":0,"rev_number":5706,"period_min":1436.0963597919,"perigee_km":35763.410577583,"apogee_km":35809.758039246,"semimajor_km":42164.721308415,"source":"CELESTRAK","updated_at":"2026-05-25T13:38:24.208126Z"}}}